Yakima, WA
on Sunday, December 30, 2012

Sunday
Previous Day Next Day
Daily Summary
 ActualAverageRecord
Temperature
Mean Temperature °F 28°F  
Max Temperature 32°F 35°F 52°F (2011)
Min Temperature 12°F 21°F -10°F (1968)
Degree Days
Heating Degree Days 43 37  
Month to date heating degree days 939 1091  
Since 1 July heating degree days 2177 2624  
Cooling Degree Days 0 0  
Month to date cooling degree days 0 0  
Year to date cooling degree days 667 472  
Moisture
Dew Point 20°F   
Average Humidity 81    
Maximum Humidity 92    
Minimum Humidity 69    
Precipitation
Precipitation T in 0.05 in 0.57 in (2005)
Month to date precipitation 2.13 1.49  
Year to date precipitation 9.32 8.21  
Snow
Snow T in 0.20 in 2.50 in (1977)
Month to date snowfall 13.5 9.1  
Year to date snowfall 35.7 21.3  
Since 1 July snowfall 14.2 12.7  
Snow Depth 6.00 in   
Wind
Wind Speed 2 mph   
Max Wind Speed 8 mph   
Max Gust Speed 8 mph   
Visibility 8 miles   
Events     

Key: T is trace of precipitation, MM is missing value
Source: NWS Daily Summary
Time(PST)TemperatureDew PointHumidity Pressure Visibility Wind DirectionWind SpeedGust SpeedPrecipitationEvents Conditions
12:53 AM 28.0°F 23.0°F 81% 30.30 in 10.0 miles Calm Calm - N/A   Overcast
1:53 AM 28.0°F 24.1°F 85% 30.31 in 10.0 miles Calm Calm - N/A   Overcast
2:53 AM 27.0°F 24.1°F 89% 30.32 in 10.0 miles Calm Calm - N/A   Overcast
3:53 AM 26.1°F 23.0°F 88% 30.33 in 8.0 miles Calm Calm - N/A   Overcast
4:53 AM 25.0°F 21.0°F 85% 30.33 in 7.0 miles Calm Calm - 0.00 in   Overcast
5:53 AM 24.1°F 21.9°F 91% 30.33 in 6.0 miles Calm Calm - 0.00 in   Overcast
6:53 AM 19.0°F 16.0°F 88% 30.35 in 4.0 miles West 4.6 mph - 0.00 in   Clear
7:08 AM 15.8°F 12.2°F 86% 30.30 in 1.8 miles West 4.6 mph - 0.00 in   Clear
7:21 AM 15.8°F 12.2°F 86% 30.30 in 3.0 miles West 4.6 mph - 0.00 in   Clear
7:53 AM 12.0°F 9.0°F 88% 30.35 in 5.0 miles West 3.5 mph - 0.00 in   Clear
8:53 AM 16.0°F 12.0°F 84% 30.38 in 6.0 miles West 6.9 mph - 0.00 in   Clear
9:53 AM 21.9°F 18.0°F 85% 30.40 in 10.0 miles WSW 3.5 mph - 0.00 in   Clear
10:53 AM 27.0°F 19.9°F 75% 30.38 in 10.0 miles West 3.5 mph - N/A   Clear
11:53 AM 28.9°F 21.9°F 75% 30.37 in 10.0 miles Calm Calm - N/A   Clear
12:53 PM 30.9°F 21.9°F 69% 30.36 in 10.0 miles Calm Calm - N/A   Partly Cloudy
1:53 PM 28.9°F 21.9°F 75% 30.36 in 9.0 miles SSE 3.5 mph - N/A   Partly Cloudy
2:53 PM 30.0°F 23.0°F 75% 30.36 in 10.0 miles Calm Calm - N/A   Scattered Clouds
3:53 PM 28.9°F 21.9°F 75% 30.37 in 10.0 miles Calm Calm - N/A   Scattered Clouds
4:46 PM 21.2°F 17.6°F 86% 30.32 in 7.0 miles Calm Calm - N/A   Mostly Cloudy
4:53 PM 23.0°F 19.0°F 85% 30.37 in 7.0 miles Calm Calm - N/A   Mostly Cloudy
5:00 PM 24.8°F 19.4°F 80% 30.32 in 8.0 miles West 3.5 mph - N/A   Mostly Cloudy
5:53 PM 25.0°F 19.0°F 78% 30.38 in 9.0 miles West 4.6 mph - N/A   Mostly Cloudy
6:53 PM 26.1°F 19.9°F 78% 30.38 in 10.0 miles WSW 5.8 mph - N/A   Overcast
7:53 PM 27.0°F 19.9°F 75% 30.38 in 10.0 miles West 5.8 mph - N/A   Overcast
8:53 PM 27.0°F 21.0°F 78% 30.38 in 10.0 miles West 3.5 mph - N/A   Overcast
9:19 PM 26.6°F 21.2°F 80% 30.33 in 9.0 miles Calm Calm - N/A   Overcast
9:53 PM 28.0°F 21.9°F 78% 30.39 in 10.0 miles Calm Calm - N/A   Overcast
10:53 PM 28.0°F 21.9°F 78% 30.38 in 10.0 miles SW 3.5 mph - N/A   Overcast
11:53 PM 28.0°F 21.9°F 78% 30.39 in 10.0 miles West 3.5 mph - N/A   Overcast
Moon Phase
Dec. 30 Jan. 04 Jan. 11 Jan. 18 Jan. 26
Sunrise:07:46 AM (PST) Moon Rise:07:10 PM (PST)
Sunset:04:24 PM (PST) Moon Set:08:49 AM (PST)

Copyright © 2014 The Weather Underground, Inc.